Location: downtown San Diego
(32.7310°N, 117.1990°W)
Time: 15:02:02
(UTC-07:00)

Cosmos 1238 Rocket - Pass Details

Date: 14 June 2018
Orbit: 376 x 1039 km, 82.9° (Epoch: 16 August)

Event Time Altitude Azimuth Distance (km) Brightness Sun altitude
Exits shadow 22:16:56 23° 20° (NNE) 889 4.2 -23.2°
Drops below altitude 10° 22:18:14 10° 14° (NNE) 1,418 5.4 -23.4°
Sets 22:20:09 0° 10° (N) 2,254 6.6 -23.6°
